GW1328 Weather Reports


Display with metric or nautical units.
time (UTC)temp
F
wind
direction
speed
MPH
gust
MPH
rain 1hr
in
rain 24hr
in
rain mn
in
humidity
%
barometer
mb
20260508025534 48 302 5.0 13.0 0.00 0.21 0.14 46 1006.9
20260508025033 48 317 6.0 13.0 0.00 0.21 0.14 46 1006.9
20260508024544 48 289 4.0 17.0 0.00 0.21 0.14 46 1006.8
20260508024035 48 329 8.0 17.0 0.00 0.21 0.14 46 1006.8
20260508023532 48 293 6.0 13.0 0.00 0.21 0.14 45 1006.8
20260508023045 48 323 6.0 11.0 0.00 0.21 0.14 45 1006.7
20260508022539 48 294 2.0 11.0 0.00 0.21 0.14 45 1006.7
20260508022032 48 301 4.0 13.0 0.00 0.21 0.14 45 1006.8
20260508021546 48 341 4.0 13.0 0.00 0.21 0.14 45 1006.8
20260508021033 48 292 5.0 11.0 0.00 0.21 0.14 45 1006.7
20260508020532 48 290 6.0 11.0 0.00 0.21 0.14 45 1006.8
20260508020049 48 325 3.0 12.0 0.00 0.21 0.14 45 1006.7
20260508015532 48 313 5.0 12.0 0.00 0.23 0.14 46 1006.6
20260508015032 48 306 4.0 11.0 0.00 0.23 0.14 47 1006.7
20260508014546 48 324 5.0 10.0 0.00 0.23 0.14 47 1006.7
20260508014035 48 310 3.0 12.0 0.00 0.23 0.14 48 1006.7
20260508013536 48 350 4.0 12.0 0.00 0.23 0.14 49 1006.7
20260508013044 48 332 4.0 12.0 0.00 0.23 0.14 49 1006.7
20260508012532 48 340 2.0 9.0 0.00 0.23 0.14 51 1006.6
20260508012037 48 329 4.0 9.0 0.00 0.23 0.14 50 1006.6
20260508011553 48 336 1.0 7.0 0.00 0.23 0.14 52 1006.6
20260508011032 48 336 1.0 7.0 0.00 0.23 0.14 54 1006.6
20260508010535 48 336 3.0 7.0 0.00 0.23 0.14 51 1006.6
20260508010046 49 323 1.0 5.0 0.00 0.23 0.14 52 1006.7
20260508005537 49 326 2.0 5.0 0.00 0.23 0.14 50 1006.5
20260508005037 49 304 1.0 4.0 0.00 0.23 0.14 49 1006.4
20260508004544 50 331 1.0 4.0 0.00 0.23 0.14 48 1006.4
20260508004033 50 331 2.0 5.0 0.00 0.23 0.14 47 1006.3
20260508003533 50 316 2.0 8.0 0.00 0.23 0.14 47 1006.3
20260508003053 51 325 2.0 8.0 0.00 0.23 0.14 46 1006.2
20260508002533 51 340 3.0 8.0 0.00 0.23 0.14 45 1006.1
20260508002034 52 332 2.0 9.0 0.00 0.23 0.14 44 1005.9
20260508001545 52 332 2.0 10.0 0.00 0.23 0.14 44 1005.9
20260508001034 52 347 5.0 10.0 0.00 0.23 0.14 43 1005.8
20260508000535 52 300 3.0 11.0 0.00 0.23 0.14 42 1005.7
20260508000051 53 340 4.0 11.0 0.00 0.23 0.14 42 1005.6
20260507235534 53 318 6.0 11.0 0.00 0.23 0.14 41 1005.5
20260507235034 53 333 5.0 11.0 0.00 0.23 0.14 42 1005.5
20260507234543 54 305 5.0 13.0 0.00 0.23 0.14 41 1005.4
20260507234035 54 327 4.0 13.0 0.00 0.23 0.14 40 1005.3
20260507233535 54 327 4.0 11.0 0.00 0.23 0.14 39 1005.2
20260507233057 55 324 6.0 11.0 0.00 0.23 0.14 38 1005.2
20260507232535 55 300 5.0 13.0 0.00 0.23 0.14 38 1005.1
20260507232033 56 302 6.0 15.0 0.00 0.23 0.14 37 1005.0
20260507231543 56 349 5.0 15.0 0.00 0.23 0.14 37 1004.9
20260507231034 56 344 9.0 16.0 0.00 0.23 0.14 37 1004.8
20260507230537 56 309 8.0 17.0 0.00 0.23 0.14 37 1004.8
20260507230045 56 298 10.0 17.0 0.00 0.23 0.14 37 1004.8
20260507225534 56 279 7.0 14.0 0.00 0.30 0.14 38 1004.7
20260507225034 56 309 6.0 14.0 0.00 0.30 0.14 38 1004.7
20260507224554 56 317 4.0 16.0 0.00 0.30 0.14 39 1004.5
20260507224036 56 329 5.0 16.0 0.00 0.30 0.14 38 1004.5
20260507223536 56 303 10.0 16.0 0.00 0.30 0.14 37 1004.3
20260507223044 57 317 9.0 15.0 0.00 0.30 0.14 37 1004.2
20260507222535 57 299 6.0 11.0 0.00 0.30 0.14 36 1004.1
20260507222034 57 261 6.0 14.0 0.00 0.30 0.14 36 1004.1
20260507221543 58 303 9.0 16.0 0.00 0.30 0.14 35 1004.1
20260507221035 58 316 7.0 19.0 0.00 0.30 0.14 35 1004.1
20260507220534 59 234 10.0 24.0 0.00 0.30 0.14 34 1004.1
20260507220045 59 283 11.0 24.0 0.00 0.30 0.14 36 1004.2
20260507215536 59 279 5.0 16.0 0.00 0.39 0.14 36 1004.0
20260507215034 58 273 7.0 17.0 0.00 0.39 0.14 36 1004.0
20260507214542 59 298 10.0 20.0 0.00 0.39 0.14 34 1004.1
20260507214033 59 277 11.0 20.0 0.00 0.39 0.14 35 1004.0
20260507213536 59 303 8.0 17.0 0.00 0.39 0.14 36 1003.9
20260507213053 59 299 10.0 18.0 0.00 0.39 0.14 34 1003.9
20260507212536 59 292 7.0 18.0 0.00 0.39 0.14 35 1003.8
20260507212036 59 288 9.0 18.0 0.00 0.39 0.14 35 1003.9
20260507211547 58 266 10.0 16.0 0.00 0.39 0.14 36 1003.9
20260507211035 58 281 6.0 21.0 0.00 0.39 0.14 36 1003.9
20260507210535 59 202 8.0 21.0 0.00 0.39 0.14 35 1003.7
20260507210054 60 271 12.0 20.0 0.00 0.39 0.14 33 1003.8
20260507205534 60 283 7.0 16.0 0.00 0.52 0.14 34 1003.7
20260507205034 60 237 8.0 15.0 0.00 0.52 0.14 34 1003.5
20260507204541 59 312 6.0 14.0 0.00 0.52 0.14 35 1003.4
20260507204035 60 272 7.0 15.0 0.00 0.52 0.14 36 1003.4
20260507203533 60 273 8.0 19.0 0.00 0.52 0.14 36 1003.3
20260507203050 60 292 8.0 20.0 0.00 0.52 0.14 36 1003.2
20260507202533 61 210 13.0 20.0 0.00 0.52 0.14 35 1003.2
20260507202034 61 311 11.0 18.0 0.00 0.52 0.14 34 1003.3
20260507201549 61 242 9.0 14.0 0.00 0.52 0.14 35 1003.2
20260507201035 62 311 6.0 18.0 0.00 0.52 0.14 37 1003.2
20260507200533 62 321 8.0 18.0 0.00 0.52 0.14 37 1003.0
20260507200050 61 265 10.0 18.0 0.00 0.52 0.14 36 1003.1
20260507195534 62 223 6.0 17.0 0.00 0.65 0.14 36 1003.1
20260507195037 62 252 10.0 17.0 0.00 0.65 0.14 36 1003.3
20260507194611 62 298 7.0 18.0 0.00 0.65 0.14 37 1003.2
20260507194034 61 321 8.0 18.0 0.00 0.65 0.14 40 1003.3
20260507193534 61 237 11.0 17.0 0.00 0.65 0.14 40 1003.4
20260507193056 62 244 9.0 18.0 0.00 0.65 0.14 42 1003.3
20260507192537 61 259 10.0 18.0 0.00 0.65 0.14 43 1003.3
20260507192034 61 244 8.0 14.0 0.00 0.65 0.14 45 1003.5
20260507191552 60 241 8.0 15.0 0.00 0.65 0.14 47 1003.5
20260507191033 60 257 7.0 15.0 0.00 0.65 0.14 48 1003.5
20260507190534 59 256 7.0 12.0 0.00 0.65 0.14 50 1003.4
20260507190052 59 269 6.0 17.0 0.00 0.65 0.14 51 1003.3
20260507185534 59 296 9.0 17.0 0.00 0.69 0.14 49 1003.4
20260507185034 60 275 9.0 15.0 0.00 0.69 0.14 50 1003.4
20260507184551 60 205 6.0 13.0 0.00 0.69 0.14 48 1003.3
20260507184035 60 246 8.0 18.0 0.00 0.69 0.14 49 1003.4
20260507183534 60 277 8.0 18.0 0.00 0.69 0.14 48 1003.4
20260507183050 60 235 10.0 18.0 0.00 0.69 0.14 47 1003.4
20260507182533 61 279 9.0 18.0 0.00 0.69 0.14 48 1003.4
20260507182033 61 302 7.0 19.0 0.00 0.69 0.14 48 1003.4
20260507181552 61 234 8.0 19.0 0.00 0.69 0.14 47 1003.6
20260507181038 61 279 10.0 19.0 0.00 0.69 0.14 46 1003.5
20260507180537 61 258 6.0 14.0 0.00 0.69 0.14 49 1003.6
20260507180050 61 297 8.0 18.0 0.00 0.69 0.14 46 1003.6
20260507175536 61 289 6.0 18.0 0.00 0.69 0.14 48 1003.5
20260507175036 61 319 7.0 19.0 0.00 0.69 0.14 47 1003.4
20260507174554 61 273 10.0 19.0 0.00 0.69 0.14 46 1003.7
20260507174036 60 287 4.0 15.0 0.00 0.69 0.14 51 1003.7
20260507173537 59 221 7.0 15.0 0.00 0.69 0.14 50 1003.7
20260507173108 59 200 6.0 14.0 0.00 0.69 0.14 50 1003.8
20260507172537 59 205 6.0 14.0 0.00 0.69 0.14 50 1003.7
20260507172037 59 254 7.0 14.0 0.00 0.69 0.14 51 1003.9
20260507171554 59 163 3.0 15.0 0.00 0.69 0.14 53 1003.9
20260507171037 59 227 8.0 15.0 0.00 0.69 0.14 51 1004.1
20260507170537 59 284 4.0 12.0 0.00 0.69 0.14 53 1004.1
20260507170058 59 286 7.0 11.0 0.00 0.69 0.14 53 1004.0
20260507165536 59 260 5.0 12.0 0.00 0.69 0.14 50 1004.1
20260507165036 59 245 5.0 12.0 0.00 0.69 0.14 49 1004.1
20260507164550 59 277 7.0 12.0 0.00 0.69 0.14 50 1004.2
20260507164037 59 240 4.0 10.0 0.00 0.69 0.14 51 1004.3
20260507163537 59 284 5.0 10.0 0.00 0.69 0.14 51 1004.3
20260507163047 59 236 5.0 10.0 0.00 0.69 0.14 51 1004.6
20260507162536 59 261 6.0 10.0 0.00 0.69 0.14 50 1004.5
20260507162039 58 261 5.0 10.0 0.00 0.69 0.14 53 1004.6
20260507161558 59 284 3.0 10.0 0.00 0.69 0.14 52 1004.6
20260507161036 58 263 4.0 8.0 0.00 0.69 0.14 56 1004.6
20260507160536 58 253 4.0 8.0 0.00 0.69 0.14 55 1004.8
20260507160049 58 176 5.0 8.0 0.00 0.69 0.14 54 1004.9
20260507155536 58 0 3.0 10.0 0.00 0.69 0.14 54 1005.0
20260507155036 58 219 6.0 10.0 0.00 0.69 0.14 54 1005.1
20260507154545 58 262 3.0 12.0 0.00 0.69 0.14 58 1005.0
20260507154037 58 194 6.0 13.0 0.00 0.69 0.14 56 1005.1
20260507153536 59 119 7.0 15.0 0.00 0.69 0.14 54 1005.1
20260507153042 59 160 6.0 15.0 0.00 0.69 0.14 54 1005.1
20260507152539 58 262 8.0 14.0 0.00 0.69 0.14 56 1005.1
20260507152036 58 200 5.0 12.0 0.00 0.69 0.14 55 1005.2
20260507151546 58 271 5.0 12.0 0.00 0.69 0.14 57 1005.2
20260507151036 57 190 5.0 11.0 0.00 0.69 0.14 57 1005.2
20260507150535 57 191 5.0 12.0 0.00 0.69 0.14 59 1005.3
20260507150047 58 248 3.0 12.0 0.00 0.69 0.14 66 1005.3
20260507145535 57 277 5.0 12.0 0.00 0.69 0.14 62 1005.5
20260507145033 57 311 4.0 13.0 0.00 0.69 0.14 63 1005.5
20260507144547 56 239 6.0 13.0 0.00 0.69 0.14 63 1005.5
20260507144034 56 125 6.0 11.0 0.00 0.69 0.14 65 1005.6
20260507143534 55 187 6.0 12.0 0.00 0.69 0.14 68 1005.6
20260507143050 55 207 7.0 12.0 0.00 0.69 0.14 66 1005.8
20260507142534 55 177 5.0 13.0 0.00 0.69 0.14 66 1005.7
20260507142034 55 207 6.0 13.0 0.00 0.69 0.14 67 1005.7
20260507141611 55 230 6.0 13.0 0.00 0.69 0.14 66 1005.7
20260507141037 55 325 5.0 9.0 0.00 0.69 0.14 67 1005.8
20260507140534 55 204 4.0 9.0 0.00 0.69 0.14 69 1005.9
20260507140048 56 216 3.0 9.0 0.00 0.69 0.14 67 1005.8
20260507135535 55 238 4.0 10.0 0.00 0.69 0.14 68 1005.9
20260507135034 55 329 3.0 11.0 0.00 0.69 0.14 68 1005.8
20260507134544 54 258 4.0 11.0 0.00 0.69 0.14 68 1005.9
20260507134034 54 245 4.0 10.0 0.00 0.69 0.14 66 1005.7
20260507133535 55 326 4.0 11.0 0.00 0.69 0.14 66 1005.7
20260507133043 54 331 5.0 11.0 0.00 0.69 0.14 69 1005.7
20260507132535 53 303 5.0 11.0 0.00 0.69 0.14 69 1005.8
20260507132033 53 323 6.0 10.0 0.00 0.69 0.14 69 1005.8
20260507131544 53 243 6.0 10.0 0.00 0.69 0.14 67 1005.7
20260507131033 53 273 5.0 15.0 0.00 0.69 0.14 70 1005.7
20260507130535 53 286 6.0 15.0 0.00 0.69 0.14 70 1005.8
20260507130053 52 261 8.0 15.0 0.00 0.69 0.14 69 1005.9
20260507125535 52 333 6.0 10.0 0.00 0.69 0.14 70 1006.1
20260507125033 52 257 4.0 12.0 0.00 0.69 0.14 73 1006.1
20260507124543 51 324 2.0 12.0 0.00 0.69 0.14 75 1006.2
20260507124031 51 295 6.0 12.0 0.00 0.69 0.14 73 1006.2
20260507123534 51 302 7.0 11.0 0.00 0.69 0.14 74 1006.1
20260507123053 51 278 3.0 9.0 0.00 0.69 0.14 76 1006.0
20260507122534 51 286 3.0 9.0 0.00 0.69 0.14 76 1006.1
20260507122033 50 259 4.0 9.0 0.00 0.69 0.14 75 1006.1
20260507121550 50 360 3.0 9.0 0.00 0.69 0.14 79 1006.0
20260507121034 50 303 2.0 8.0 0.00 0.69 0.14 79 1005.9
20260507120535 49 5 4.0 10.0 0.00 0.69 0.14 80 1006.0
20260507120048 49 282 5.0 10.0 0.00 0.69 0.14 79 1006.1
20260507115533 48 271 5.0 9.0 0.00 0.69 0.14 81 1006.1
20260507115033 48 268 6.0 9.0 0.00 0.69 0.14 82 1006.1
20260507114546 48 294 4.0 8.0 0.00 0.69 0.14 84 1006.3
20260507114033 47 255 3.0 8.0 0.00 0.69 0.14 86 1006.2
20260507113535 47 302 4.0 8.0 0.00 0.69 0.14 86 1006.3
20260507113049 46 265 4.0 8.0 0.00 0.69 0.14 86 1006.3
20260507112533 46 281 2.0 8.0 0.00 0.69 0.14 89 1006.4
20260507112036 46 290 1.0 5.0 0.00 0.69 0.14 89 1006.2
20260507111547 46 273 1.0 6.0 0.00 0.69 0.14 89 1006.2
20260507111036 45 231 3.0 6.0 0.00 0.69 0.14 89 1006.6
20260507110535 45 238 3.0 5.0 0.00 0.69 0.14 89 1006.6
20260507110045 45 261 1.0 6.0 0.00 0.69 0.14 90 1006.3
20260507105532 45 261 3.0 6.0 0.00 0.69 0.14 90 1006.2
20260507105033 45 215 3.0 6.0 0.00 0.69 0.14 91 1006.2
20260507104543 45 217 2.0 4.0 0.00 0.69 0.14 91 1006.6
20260507104033 45 298 1.0 4.0 0.00 0.69 0.14 91 1005.9
20260507103534 45 242 1.0 4.0 0.00 0.69 0.14 91 1006.1
20260507103047 45 242 2.0 6.0 0.00 0.69 0.14 91 1006.2
20260507102534 45 0 1.0 6.0 0.00 0.69 0.14 91 1006.2
20260507102035 45 242 3.0 6.0 0.00 0.69 0.14 91 1006.4
20260507101544 45 259 2.0 4.0 0.00 0.69 0.14 92 1006.3
20260507101036 45 236 2.0 4.0 0.00 0.69 0.14 92 1006.0
20260507100536 45 224 2.0 4.0 0.00 0.69 0.14 92 1005.8
20260507100048 45 225 1.0 3.0 0.00 0.69 0.14 92 1005.7
20260507095531 45 271 2.0 3.0 0.00 0.69 0.14 92 1005.8
20260507095034 45 271 0.0 3.0 0.00 0.69 0.14 92 1005.4
20260507094549 45 0 0.0 4.0 0.00 0.69 0.14 92 1005.5
20260507094033 45 271 1.0 4.0 0.00 0.69 0.14 92 1005.8
20260507093533 45 271 0.0 3.0 0.00 0.69 0.14 92 1005.6
20260507093050 45 271 1.0 6.0 0.00 0.69 0.14 92 1005.8
20260507092535 45 271 2.0 6.0 0.00 0.69 0.14 92 1005.8
20260507092035 45 271 2.0 6.0 0.00 0.69 0.14 92 1005.8
20260507091547 45 271 2.0 4.0 0.00 0.69 0.14 92 1005.9
20260507091033 45 271 1.0 4.0 0.00 0.69 0.14 92 1005.8
20260507090532 45 271 1.0 4.0 0.00 0.69 0.14 92 1005.9
20260507090046 46 271 2.0 4.0 0.00 0.69 0.14 92 1006.0
20260507085533 46 271 2.0 4.0 0.00 0.69 0.14 92 1005.8
20260507085033 46 271 2.0 6.0 0.00 0.69 0.14 92 1005.9
20260507084543 46 271 2.0 6.0 0.00 0.69 0.14 92 1006.1
20260507084034 46 277 3.0 6.0 0.00 0.69 0.14 93 1005.7
20260507083533 46 259 3.0 7.0 0.00 0.69 0.14 92 1005.8
20260507083042 46 284 2.0 7.0 0.00 0.69 0.14 93 1005.3
20260507082534 46 259 1.0 4.0 0.00 0.69 0.14 93 1005.5
20260507082033 47 259 2.0 5.0 0.00 0.69 0.14 93 1005.3
20260507081547 47 259 2.0 6.0 0.00 0.69 0.14 93 1005.3
20260507081035 47 278 2.0 6.0 0.00 0.69 0.14 93 1005.4
20260507080539 47 278 2.0 6.0 0.00 0.69 0.14 94 1005.3
20260507080051 48 302 2.0 4.0 0.00 0.69 0.14 94 1005.5
20260507075533 48 302 0.0 5.0 0.00 0.69 0.14 94 1005.2
20260507075033 48 301 1.0 5.0 0.00 0.69 0.14 94 1005.3
20260507074546 48 301 3.0 9.0 0.00 0.69 0.14 94 1005.5
20260507074031 48 271 4.0 9.0 0.00 0.69 0.14 94 1005.5
20260507073533 48 315 2.0 7.0 0.00 0.69 0.14 94 1005.4
20260507073104 48 281 2.0 7.0 0.00 0.69 0.14 94 1005.7
20260507072533 48 281 3.0 7.0 0.00 0.69 0.14 94 1005.5
20260507072035 48 327 1.0 3.0 0.00 0.69 0.14 94 1005.1
20260507071544 49 327 1.0 2.0 0.00 0.69 0.14 94 1005.2
20260507071034 49 327 0.0 3.0 0.00 0.69 0.14 94 1005.2
20260507070535 49 327 1.0 3.0 0.00 0.69 0.14 94 1005.2
20260507070045 49 327 1.0 3.0 0.00 0.69 0.14 94 1005.3
20260507065536 49 327 0.0 4.0 0.00 0.69 0.14 94 1005.0
20260507065035 49 327 2.0 4.0 0.00 0.69 0.14 94 1005.0
20260507064559 49 327 2.0 4.0 0.00 0.69 0.14 94 1004.9
20260507064035 49 0 0.0 3.0 0.00 0.69 0.14 94 1004.7
20260507063531 49 0 1.0 5.0 0.00 0.69 0.14 94 1004.8
20260507063057 49 327 1.0 5.0 0.00 0.69 0.14 94 1004.8
20260507062533 49 300 3.0 5.0 0.01 0.69 0.14 94 1004.7
20260507062034 49 300 2.0 5.0 0.01 0.69 0.14 94 1004.6
20260507061547 49 300 2.0 4.0 0.01 0.69 0.14 94 1004.7
20260507061034 50 300 1.0 4.0 0.01 0.69 0.14 94 1004.6
20260507060535 50 300 2.0 4.0 0.02 0.69 0.14 94 1004.5
20260507060044 50 355 0.0 3.0 0.03 0.69 0.14 94 1004.7
20260507055533 50 355 1.0 5.0 0.05 0.69 0.14 94 1004.5
20260507055034 50 0 1.0 8.0 0.06 0.69 0.14 94 1004.3
20260507054542 50 348 2.0 8.0 0.06 0.69 0.14 94 1004.3
20260507054035 50 333 3.0 7.0 0.08 0.69 0.14 94 1004.3
20260507053534 50 332 2.0 6.0 0.10 0.69 0.14 95 1004.5
20260507053042 50 0 1.0 6.0 0.11 0.69 0.14 95 1004.6
20260507052532 50 317 2.0 7.0 0.11 0.68 0.13 95 1004.9
20260507052034 50 313 2.0 8.0 0.11 0.68 0.13 95 1004.7
20260507051549 51 333 4.0 8.0 0.11 0.68 0.13 95 1004.8
20260507051037 51 264 4.0 9.0 0.12 0.68 0.13 95 1004.7
20260507050533 51 22 2.0 9.0 0.11 0.67 0.12 95 1004.7
20260507050057 51 292 5.0 9.0 0.10 0.66 0.11 95 1004.8
20260507045531 51 285 3.0 9.0 0.10 0.64 0.09 95 1004.8
20260507045033 51 225 4.0 9.0 0.09 0.63 0.08 95 1004.9
20260507044551 51 205 2.0 7.0 0.08 0.62 0.07 95 1004.7
20260507044031 51 179 3.0 10.0 0.07 0.61 0.06 95 1004.9
20260507043535 52 192 4.0 10.0 0.05 0.58 0.04 95 1005.1
20260507043050 52 231 3.0 9.0 0.05 0.58 0.03 95 1004.7
20260507042535 52 277 3.0 10.0 0.04 0.57 0.02 95 1004.4
20260507042033 52 278 5.0 10.0 0.05 0.57 0.02 95 1004.4
20260507041547 52 296 3.0 8.0 0.05 0.57 0.02 95 1004.3
20260507041033 52 300 4.0 10.0 0.04 0.56 0.01 95 1004.5
20260507040534 52 276 4.0 10.0 0.04 0.56 0.01 95 1004.6
20260507040044 52 261 2.0 13.0 0.04 0.55 0.00 95 1004.3
20260507035533 53 269 5.0 13.0 0.03 0.54 0.54 95 1004.5
20260507035033 53 242 4.0 8.0 0.04 0.54 0.54 95 1004.5
20260507034557 53 206 4.0 8.0 0.04 0.54 0.54 96 1004.6
20260507034034 53 300 4.0 8.0 0.05 0.54 0.54 96 1004.3
20260507033536 53 272 2.0 8.0 0.05 0.54 0.54 96 1004.2
20260507033101 53 198 4.0 8.0 0.04 0.52 0.52 96 1004.1
20260507032534 53 190 3.0 8.0 0.04 0.52 0.52 95 1004.2
20260507032033 53 209 4.0 8.0 0.03 0.52 0.52 95 1004.2
20260507031549 53 222 5.0 8.0 0.03 0.52 0.52 95 1004.0
20260507031034 53 190 4.0 7.0 0.03 0.52 0.52 95 1004.0
20260507030536 53 209 3.0 5.0 0.04 0.52 0.52 95 1003.8
20260507030045 53 221 2.0 5.0 0.03 0.51 0.51 95 1003.9